User: anonymous   Login
Location: Elstree
(51.6403°N, 0.2969°W)
Time: 15:18:50
(UTC+00:00)
Language:

N. Korean satellite - Orbit

View from above orbital plane
View from above orbital plane
View from above satellite
View from above satellite

Ground track
Ground track

The orbit data is extracted from the following two-line orbital elements,

1 39026U 12072A   21174.89303576  .00002641  00000-0  91077-4 0  9999
2 39026  97.2435 167.5999 0035693   4.6276 355.5288 15.30270392474013
Epoch (UTC): 23 June 2021 21:25:58
Eccentricity: 0.0035693
inclination: 97.2435°
perigee height: 450 km
apogee height: 499 km
right ascension of ascending node: 167.5999°
argument of perigee: 4.6276°
revolutions per day: 15.30270392
mean anomaly at epoch: 355.5288°
orbit number at epoch: 47401

The dashed part of the orbit path shows where the satellite is in the earth's shadow,  

DLR